{"data":{"norad_id":69491,"intl_designator":"2026-131P","name":"STARLINK-37856","alt_names":[],"object_type":"PAYLOAD","status":"ACTIVE","operator":null,"country":"US","launch_date":"2026-06-11","launch_site_code":"AFWTR","launch_vehicle":null,"mission":null,"orbit_class":"UNKNOWN","rcs_meters":null,"size_class":null,"mass_kg":null,"dimensions":null,"purposes":["comms"],"wikipedia_slug":null,"has_3d_model":false,"image_url":null,"decayed_at":null,"tle_current":{"epoch":"2026-09-20T00:14:39.004224Z","epoch_age_seconds":67796,"freshness":"FRESH","line1":"1 69491U 26131P   26263.01017366  .00009927  00000+0  30931-3 0  9990","line2":"2 69491  97.2842 283.8995 0001208  99.4714 260.6665 15.33453903 16826","mean_motion":15.33453903,"eccentricity":0.0001208,"inclination_deg":97.2842,"raan_deg":283.8995,"arg_perigee_deg":99.4714,"mean_anomaly_deg":260.6665,"bstar":0.00030931,"rev_number":1682,"period_min":93.905659451701,"perigee_km":464.68997217687,"apogee_km":466.3433989073,"semimajor_km":6843.6536855421,"source":"CELESTRAK","updated_at":"2026-09-20T09:00:44.207898Z"}}}